SV2MJJ Weather Reports


time (UTC)temp
C
wind
direction
speed
KPH
gust
KPH
rain 1hr
cm
rain 24hr
cm
rain mn
cm
humidity
%
barometer
mb
20210922195104 17 40 6.4 9.7 0.00 0.00 0.00 49 1013.9
20210922194541 17 37 1.6 9.7 0.00 0.00 0.00 49 1013.8
20210922194049 17 36 3.2 11.3 0.00 0.00 0.00 49 1013.7
20210922193544 17 36 8.0 17.7 0.00 0.00 0.00 49 1013.7
20210922193039 17 39 8.0 17.7 0.00 0.00 0.00 49 1013.7
20210922192541 17 38 4.8 11.3 0.00 0.00 0.00 49 1013.9
20210922192101 17 38 4.8 16.1 0.00 0.00 0.00 49 1013.8
20210922191538 17 38 4.8 24.1 0.00 0.00 0.00 49 1013.8
20210922191043 17 40 9.7 24.1 0.00 0.00 0.00 49 1013.7
20210922190546 17 42 11.3 20.9 0.00 0.00 0.00 49 1013.8
20210922190042 17 46 6.4 22.5 0.00 0.00 0.00 50 1013.8
20210922185549 17 42 11.3 17.7 0.00 0.00 0.00 51 1013.7
20210922185050 17 39 9.7 16.1 0.00 0.00 0.00 51 1013.7
20210922184554 17 44 4.8 16.1 0.00 0.00 0.00 51 1013.7
20210922184051 17 47 8.0 17.7 0.00 0.00 0.00 50 1013.7
20210922183537 17 42 8.0 20.9 0.00 0.00 0.00 50 1013.7
20210922183041 17 43 11.3 20.9 0.00 0.00 0.00 51 1013.7
20210922182538 17 132 8.0 12.9 0.00 0.00 0.00 50 1013.8
20210922182046 17 171 3.2 11.3 0.00 0.00 0.00 50 1013.7
20210922181551 17 184 0.0 8.0 0.00 0.00 0.00 50 1013.6
20210922181100 17 184 0.0 8.0 0.00 0.00 0.00 50 1013.4
20210922180539 17 184 0.0 8.0 0.00 0.00 0.00 51 1013.4
20210922180043 17 184 1.6 8.0 0.00 0.00 0.00 53 1013.4
20210922175551 17 186 1.6 6.4 0.00 0.00 0.00 53 1013.4
20210922175048 17 188 0.0 1.6 0.00 0.00 0.00 52 1013.2
20210922174554 17 188 0.0 1.6 0.00 0.00 0.00 52 1013.0
20210922174057 17 187 0.0 1.6 0.00 0.00 0.00 52 1012.9
20210922173556 17 187 0.0 1.6 0.00 0.00 0.00 52 1012.9
20210922173034 17 188 0.0 1.6 0.00 0.00 0.00 52 1012.8
20210922172536 17 188 0.0 8.0 0.00 0.00 0.00 52 1012.7
20210922172045 17 188 1.6 11.3 0.00 0.00 0.00 52 1012.5
20210922171540 18 188 6.4 11.3 0.00 0.00 0.00 51 1012.4
20210922171040 18 188 4.8 9.7 0.00 0.00 0.00 52 1012.5
20210922170546 18 188 3.2 11.3 0.00 0.00 0.00 52 1012.5
20210922170054 18 188 3.2 11.3 0.00 0.00 0.00 52 1012.5
20210922165552 18 188 3.2 9.7 0.00 0.00 0.00 51 1012.6
20210922165054 18 188 3.2 9.7 0.00 0.00 0.00 52 1012.6
20210922164557 18 188 1.6 12.9 0.00 0.00 0.00 52 1012.5
20210922164059 18 188 8.0 12.9 0.00 0.00 0.00 51 1012.6
20210922163547 18 187 6.4 14.5 0.00 0.00 0.00 52 1012.4
20210922163046 18 186 9.7 14.5 0.00 0.00 0.00 52 1012.5
20210922162534 18 184 6.4 14.5 0.00 0.00 0.00 52 1012.6
20210922162055 18 184 11.3 14.5 0.00 0.00 0.00 51 1012.6
20210922161552 18 181 8.0 14.5 0.00 0.00 0.00 51 1012.6
20210922161039 18 178 8.0 14.5 0.00 0.00 0.00 51 1012.5
20210922160546 18 176 4.8 16.1 0.00 0.00 0.00 51 1012.6
20210922160040 18 174 9.7 16.1 0.00 0.00 0.00 51 1012.7
20210922155547 18 168 8.0 16.1 0.00 0.00 0.00 50 1012.6
20210922155052 19 165 11.3 16.1 0.00 0.00 0.00 50 1012.5
20210922154546 19 160 8.0 16.1 0.00 0.00 0.00 50 1012.6
20210922154035 19 156 9.7 16.1 0.00 0.00 0.00 50 1012.5
20210922153542 19 150 4.8 12.9 0.00 0.00 0.00 50 1012.6
20210922153036 20 149 4.8 12.9 0.00 0.00 0.00 49 1012.6
20210922152544 20 148 1.6 12.9 0.00 0.00 0.00 49 1012.7
20210922152051 20 147 0.0 14.5 0.00 0.00 0.00 49 1012.7
20210922151554 20 144 0.0 11.3 0.00 0.00 0.00 48 1012.6
20210922151047 20 144 0.0 8.0 0.00 0.00 0.00 48 1012.6
20210922150535 20 146 1.6 8.0 0.00 0.00 0.00 48 1012.6
20210922150045 20 146 0.0 11.3 0.00 0.00 0.00 48 1012.5
20210922145540 20 146 1.6 12.9 0.00 0.00 0.00 48 1012.5
20210922145047 20 149 0.0 12.9 0.00 0.00 0.00 49 1012.5
20210922144553 20 149 1.6 9.7 0.00 0.00 0.00 48 1012.5
20210922144048 20 149 3.2 17.7 0.00 0.00 0.00 49 1012.4
20210922143551 20 151 8.0 17.7 0.00 0.00 0.00 48 1012.3
20210922143034 21 156 4.8 16.1 0.00 0.00 0.00 48 1012.2
20210922142602 21 157 0.0 25.7 0.00 0.00 0.00 48 1012.1
20210922142037 21 157 8.0 25.7 0.00 0.00 0.00 48 1012.1
20210922141541 21 157 6.4 20.9 0.00 0.00 0.00 48 1012.1
20210922141051 21 171 9.7 20.9 0.00 0.00 0.00 48 1012.0
20210922140547 21 150 3.2 16.1 0.00 0.00 0.00 48 1012.1
20210922140054 21 152 4.8 12.9 0.00 0.00 0.00 48 1012.0
20210922135541 21 152 1.6 12.9 0.00 0.00 0.00 49 1012.0
20210922135038 22 154 1.6 12.9 0.00 0.00 0.00 49 1011.9
20210922134544 22 155 4.8 14.5 0.00 0.00 0.00 50 1012.0
20210922134050 22 155 9.7 14.5 0.00 0.00 0.00 49 1012.1
20210922133557 22 155 1.6 12.9 0.00 0.00 0.00 49 1012.1
20210922133034 22 159 1.6 11.3 0.00 0.00 0.00 48 1011.9
20210922132542 22 161 3.2 11.3 0.00 0.00 0.00 48 1012.0
20210922132049 22 165 0.0 8.0 0.00 0.00 0.00 49 1012.0
20210922131541 22 167 0.0 11.3 0.00 0.00 0.00 49 1012.1
20210922131050 22 167 0.0 11.3 0.00 0.00 0.00 49 1012.1
20210922130559 22 167 6.4 11.3 0.00 0.00 0.00 48 1012.0
20210922130036 23 163 0.0 3.2 0.00 0.00 0.00 48 1012.0
20210922125540 23 163 0.0 8.0 0.00 0.00 0.00 48 1012.1
20210922125043 23 163 0.0 9.7 0.00 0.00 0.00 48 1012.2
20210922124544 23 163 1.6 9.7 0.00 0.00 0.00 47 1012.3
20210922124047 23 163 0.0 3.2 0.00 0.00 0.00 48 1012.4
20210922123554 23 163 0.0 11.3 0.00 0.00 0.00 48 1012.4
20210922123104 23 163 1.6 11.3 0.00 0.00 0.00 48 1012.4
20210922122542 23 161 0.0 3.2 0.00 0.00 0.00 48 1012.4
20210922122045 23 161 0.0 4.8 0.00 0.00 0.00 48 1012.4
20210922121551 23 161 0.0 12.9 0.00 0.00 0.00 48 1012.5
20210922121056 23 161 3.2 14.5 0.00 0.00 0.00 48 1012.5
20210922120547 23 165 1.6 16.1 0.00 0.00 0.00 48 1012.5
20210922120034 23 162 1.6 14.5 0.00 0.00 0.00 48 1012.6
20210922115541 23 159 1.6 8.0 0.00 0.00 0.00 47 1012.6
20210922115034 23 159 0.0 16.1 0.00 0.00 0.00 47 1012.8
20210922114543 23 151 4.8 12.9 0.00 0.00 0.00 46 1012.8
20210922114046 23 153 3.2 11.3 0.00 0.00 0.00 46 1013.0
20210922113539 23 161 0.0 11.3 0.00 0.00 0.00 46 1012.9
20210922113045 23 161 0.0 8.0 0.00 0.00 0.00 48 1013.0
20210922112545 23 161 1.6 14.5 0.00 0.00 0.00 47 1013.3
20210922112051 23 165 6.4 16.1 0.00 0.00 0.00 47 1013.3
20210922111544 23 159 0.0 9.7 0.00 0.00 0.00 48 1013.2
20210922111035 23 159 0.0 9.7 0.00 0.00 0.00 49 1013.3
20210922110543 22 159 0.0 11.3 0.00 0.00 0.00 49 1013.3
20210922110045 22 159 1.6 11.3 0.00 0.00 0.00 49 1013.3
20210922105553 22 159 0.0 12.9 0.00 0.00 0.00 49 1013.4
20210922105045 22 159 1.6 16.1 0.00 0.00 0.00 49 1013.4
20210922104548 22 159 3.2 17.7 0.00 0.00 0.00 49 1013.4
20210922104058 22 155 0.0 12.9 0.00 0.00 0.00 49 1013.4
20210922103538 22 173 0.0 8.0 0.00 0.00 0.00 49 1013.5
20210922103045 22 173 1.6 12.9 0.00 0.00 0.00 50 1013.8
20210922102548 22 174 3.2 12.9 0.00 0.00 0.00 51 1013.8
20210922102049 22 182 4.8 12.9 0.00 0.00 0.00 51 1013.9
20210922101535 22 184 4.8 16.1 0.00 0.00 0.00 51 1013.9
20210922101041 22 182 8.0 16.1 0.00 0.00 0.00 50 1014.0
20210922100535 22 174 0.0 9.7 0.00 0.00 0.00 52 1014.1
20210922100045 22 177 1.6 12.9 0.00 0.00 0.00 51 1014.1
20210922095537 22 178 4.8 12.9 0.00 0.00 0.00 51 1014.2
20210922095100 22 176 0.0 11.3 0.00 0.00 0.00 53 1014.3
20210922094540 22 178 0.0 17.7 0.00 0.00 0.00 54 1014.4
20210922094045 22 176 4.8 17.7 0.00 0.00 0.00 53 1014.6
20210922093538 22 164 0.0 8.0 0.00 0.00 0.00 53 1014.5
20210922093046 22 167 3.2 8.0 0.00 0.00 0.00 53 1014.8
20210922092554 22 179 0.0 6.4 0.00 0.00 0.00 53 1014.8
20210922092057 22 179 1.6 6.4 0.00 0.00 0.00 54 1015.0
20210922091535 21 180 0.0 8.0 0.00 0.00 0.00 55 1014.9
20210922091043 21 180 0.0 8.0 0.00 0.00 0.00 55 1015.1
20210922090548 21 180 0.0 11.3 0.00 0.00 0.00 55 1015.2
20210922090044 21 181 3.2 14.5 0.00 0.00 0.00 56 1015.1
20210922085550 21 181 4.8 14.5 0.00 0.00 0.00 55 1015.1
20210922085035 21 180 0.0 8.0 0.00 0.00 0.00 55 1015.2
20210922084555 21 181 0.0 9.7 0.00 0.00 0.00 56 1015.5
20210922084034 21 186 0.0 4.8 0.00 0.00 0.00 56 1015.5
20210922083541 20 187 0.0 14.5 0.00 0.00 0.00 57 1015.6
20210922083037 20 187 3.2 14.5 0.00 0.00 0.00 57 1015.8
20210922082545 20 184 0.0 8.0 0.00 0.00 0.00 57 1015.8
20210922082050 20 184 0.0 11.3 0.00 0.00 0.00 57 1015.8
20210922081600 20 185 3.2 11.3 0.00 0.00 0.00 58 1015.8
20210922081053 20 189 0.0 11.3 0.00 0.00 0.00 59 1015.8
20210922080542 19 190 6.4 11.3 0.00 0.00 0.00 59 1015.9
20210922080051 19 188 6.4 12.9 0.00 0.00 0.00 59 1016.0
20210922075543 19 188 0.0 12.9 0.00 0.00 0.00 59 1015.9
20210922075051 19 187 8.0 14.5 0.00 0.00 0.00 60 1016.0
20210922074557 18 185 4.8 14.5 0.00 0.00 0.00 60 1016.1
20210922074100 18 184 3.2 12.9 0.00 0.00 0.00 61 1016.2
20210922073540 18 184 0.0 12.9 0.00 0.00 0.00 61 1016.2
20210922073048 18 184 6.4 14.5 0.00 0.00 0.00 61 1016.2
20210922072556 18 182 6.4 14.5 0.00 0.00 0.00 61 1016.4
20210922072051 18 182 3.2 12.9 0.00 0.00 0.00 61 1016.4
20210922071539 18 182 8.0 12.9 0.00 0.00 0.00 60 1016.5
20210922071040 18 181 3.2 6.4 0.00 0.00 0.00 60 1016.5
20210922070544 18 181 0.0 16.1 0.00 0.00 0.00 61 1016.5
20210922070051 18 186 9.7 16.1 0.00 0.00 0.00 60 1016.5
20210922065559 18 181 1.6 8.0 0.00 0.00 0.00 61 1016.5
20210922065039 18 182 1.6 6.4 0.00 0.00 0.00 61 1016.4
20210922064537 18 182 0.0 12.9 0.00 0.00 0.00 61 1016.4
20210922064052 18 182 4.8 12.9 0.00 0.00 0.00 61 1016.5
20210922063548 18 189 3.2 11.3 0.00 0.00 0.00 62 1016.5
20210922063057 18 189 1.6 8.0 0.00 0.00 0.00 63 1016.4
20210922062549 17 194 1.6 11.3 0.00 0.00 0.00 64 1016.4
20210922062041 17 196 8.0 11.3 0.00 0.00 0.00 64 1016.5
20210922061556 17 198 1.6 8.0 0.00 0.00 0.00 65 1016.5
20210922061100 17 198 526.3 9.7 0.00 0.00 0.00 65 1016.5
20210922055545 17 199 4.8 11.3 0.00 0.00 0.00 67 1016.5
20210922055043 17 199 3.2 11.3 0.00 0.00 0.00 67 1016.6
20210922054548 17 200 6.4 11.3 0.00 0.00 0.00 67 1016.6
20210922054055 17 200 3.2 11.3 0.00 0.00 0.00 67 1016.7
20210922053557 17 200 8.0 9.7 0.00 0.00 0.00 67 1016.4
20210922053046 17 200 0.0 0.0 0.00 0.00 0.00 67 1016.8
20210922052554 17 200 0.0 4.8 0.00 0.00 0.00 67 1016.7
20210922052034 16 200 0.0 4.8 0.00 0.00 0.00 67 1016.6
20210922051602 16 200 0.0 11.3 0.00 0.00 0.00 67 1016.6
20210922051101 16 201 1.6 11.3 0.00 0.00 0.00 67 1016.5
20210922050552 16 201 4.8 9.7 0.00 0.00 0.00 67 1016.4
20210922050038 16 201 4.8 9.7 0.00 0.00 0.00 68 1016.4
20210922045537 16 201 4.8 8.0 0.00 0.00 0.00 68 1016.3
20210922045042 16 201 1.6 9.7 0.00 0.00 0.00 68 1016.3
20210922044545 16 201 4.8 11.3 0.00 0.00 0.00 68 1016.3
20210922044044 16 201 8.0 14.5 0.00 0.00 0.00 68 1016.2
20210922043543 16 200 8.0 14.5 0.00 0.00 0.00 68 1016.2
20210922043047 16 199 6.4 12.9 0.00 0.00 0.00 67 1016.1
20210922042556 17 200 4.8 9.7 0.00 0.00 0.00 67 1016.2
20210922042101 17 200 1.6 11.3 0.00 0.00 0.00 67 1016.1
20210922041554 17 200 3.2 11.3 0.00 0.00 0.00 67 1016.0
20210922041041 17 200 4.8 8.0 0.00 0.00 0.00 67 1015.9
20210922040541 17 200 0.0 4.8 0.00 0.00 0.00 66 1015.9
20210922040046 17 200 0.0 4.8 0.00 0.00 0.00 66 1015.9
20210922035552 17 200 0.0 0.0 0.00 0.00 0.00 66 1015.9
20210922035059 17 200 0.0 1.6 0.00 0.00 0.00 66 1016.0
20210922034536 17 200 0.0 4.8 0.00 0.00 0.00 66 1016.1
20210922034037 17 200 0.0 3.2 0.00 0.00 0.00 66 1016.1
20210922033603 17 200 0.0 8.0 0.00 0.00 0.00 66 1016.1
20210922033037 17 200 3.2 11.3 0.00 0.00 0.00 66 1016.2
20210922032540 17 200 4.8 14.5 0.00 0.00 0.00 66 1016.2
20210922032045 17 200 4.8 14.5 0.00 0.00 0.00 66 1016.3
20210922031544 17 201 9.7 16.1 0.00 0.00 0.00 66 1016.3
20210922031050 17 201 11.3 16.1 0.00 0.00 0.00 65 1016.3
20210922030551 17 196 8.0 20.9 0.00 0.00 0.00 65 1016.4
20210922030055 17 194 12.9 20.9 0.00 0.00 0.00 64 1016.4
20210922025548 18 200 14.5 20.9 0.00 0.00 0.00 64 1016.4
20210922025050 18 231 11.3 19.3 0.00 0.00 0.00 63 1016.4
20210922024556 18 248 8.0 12.9 0.00 0.00 0.00 63 1016.4
20210922024100 18 250 8.0 12.9 0.00 0.00 0.00 63 1016.4
20210922023535 18 253 8.0 12.9 0.00 0.00 0.00 63 1016.4
20210922023043 18 255 4.8 14.5 0.00 0.00 0.00 62 1016.5
20210922022538 18 259 6.4 14.5 0.00 0.00 0.00 61 1016.5
20210922022045 18 267 3.2 12.9 0.00 0.00 0.00 61 1016.4
20210922021550 18 267 0.0 12.9 0.00 0.00 0.00 61 1016.5
20210922021056 18 267 4.8 12.9 0.00 0.00 0.00 61 1016.3
20210922020553 18 267 4.8 12.9 0.00 0.00 0.00 61 1016.3
20210922020054 18 267 4.8 12.9 0.00 0.00 0.00 61 1016.4
20210922015600 18 266 4.8 12.9 0.00 0.00 0.00 61 1016.3
20210922015035 18 265 3.2 14.5 0.00 0.00 0.00 61 1016.3
20210922014538 18 265 8.0 17.7 0.00 0.00 0.00 61 1016.2
20210922014042 18 265 6.4 17.7 0.00 0.00 0.00 61 1016.2
20210922013552 19 265 11.3 16.1 0.00 0.00 0.00 60 1016.2
20210922013040 19 261 8.0 12.9 0.00 0.00 0.00 59 1016.2
20210922012543 19 260 3.2 14.5 0.00 0.00 0.00 59 1016.1
20210922012047 19 261 8.0 14.5 0.00 0.00 0.00 59 1016.2
20210922011543 19 263 9.7 14.5 0.00 0.00 0.00 59 1016.2
20210922011047 19 263 6.4 19.3 0.00 0.00 0.00 60 1016.2
20210922010553 18 263 4.8 19.3 0.00 0.00 0.00 60 1016.3
20210922010100 18 263 12.9 19.3 0.00 0.00 0.00 62 1016.4
20210922005553 18 263 12.9 17.7 0.00 0.00 0.00 61 1016.5
20210922005050 18 265 9.7 20.9 0.00 0.00 0.00 61 1016.6
20210922004534 18 265 12.9 20.9 0.00 0.00 0.00 61 1016.6
20210922004056 18 252 12.9 17.7 0.00 0.00 0.00 61 1016.6
20210922003553 19 236 4.8 14.5 0.00 0.00 0.00 60 1016.6
20210922003040 18 235 6.4 14.5 0.00 0.00 0.00 60 1016.7
20210922002547 18 231 6.4 14.5 0.00 0.00 0.00 61 1016.8
20210922002043 18 230 8.0 14.5 0.00 0.00 0.00 61 1016.9
20210922001553 18 223 8.0 12.9 0.00 0.00 0.00 60 1017.0
20210922001100 19 214 6.4 12.9 0.00 0.00 0.00 60 1017.0
20210922000607 19 211 6.4 11.3 0.00 0.00 0.00 58 1017.0
20210922000038 20 204 6.4 9.7 0.00 0.00 0.00 58 1016.9
20210921235544 20 199 6.4 9.7 0.00 0.00 0.00 57 1017.0
20210921235054 20 198 1.6 6.4 0.00 0.00 0.00 57 1017.1
20210921234534 20 198 0.0 0.0 0.00 0.00 0.00 56 1017.0
20210921234041 20 198 0.0 6.4 0.00 0.00 0.00 56 1017.1
20210921233550 20 198 0.0 6.4 0.00 0.00 0.00 56 1017.0
20210921233045 20 198 1.6 9.7 0.00 0.00 0.00 57 1016.9
20210921232552 20 198 6.4 12.9 0.00 0.00 0.00 57 1016.9
20210921232039 20 198 4.8 14.5 0.00 0.00 0.00 57 1017.0
20210921231601 20 198 6.4 14.5 0.00 0.00 0.00 57 1017.0
20210921231040 20 198 9.7 16.1 0.00 0.00 0.00 57 1016.7
20210921230546 20 197 9.7 16.1 0.00 0.00 0.00 56 1016.7
20210921230052 20 199 9.7 16.1 0.00 0.00 0.00 56 1016.8
20210921225548 20 203 8.0 14.5 0.00 0.00 0.00 55 1016.7
20210921225050 20 205 6.4 14.5 0.00 0.00 0.00 55 1016.5
20210921224555 21 205 9.7 16.1 0.00 0.00 0.00 54 1016.5
20210921224046 21 205 9.7 16.1 0.00 0.00 0.00 53 1016.4
20210921223535 21 208 8.0 12.9 0.00 0.00 0.00 53 1016.4
20210921223042 21 208 6.4 12.9 0.00 0.00 0.00 53 1016.3
20210921222537 21 208 8.0 12.9 0.00 0.00 0.00 52 1016.2
20210921222047 21 208 8.0 12.9 0.00 0.00 0.00 52 1016.2
20210921221534 21 208 4.8 9.7 0.00 0.00 0.00 53 1016.2
20210921221054 21 208 0.0 4.8 0.00 0.00 0.00 53 1016.1
20210921220547 21 208 0.0 4.8 0.00 0.00 0.00 52 1016.1
20210921220052 21 208 0.0 11.3 0.00 0.00 0.00 52 1016.0
20210921215540 21 208 4.8 11.3 0.00 0.00 0.00 51 1016.0
20210921215101 21 208 6.4 11.3 0.00 0.00 0.00 51 1015.9
20210921214540 21 207 1.6 16.1 0.00 0.00 0.00 52 1016.1
20210921214047 21 208 4.8 16.1 0.00 0.00 0.00 51 1016.0
20210921213553 21 209 3.2 6.4 0.00 0.00 0.00 52 1016.1
20210921213051 21 209 1.6 9.7 0.00 0.00 0.00 52 1016.1
20210921212539 21 209 4.8 9.7 0.00 0.00 0.00 53 1016.1
20210921212042 21 209 0.0 0.0 0.00 0.00 0.00 54 1016.2
20210921211537 21 209 0.0 0.0 0.00 0.00 0.00 54 1016.1
20210921211041 21 209 0.0 3.2 0.00 0.00 0.00 54 1016.1
20210921210545 21 209 0.0 6.4 0.00 0.00 0.00 55 1016.2
20210921210037 21 209 1.6 11.3 0.00 0.00 0.00 55 1016.1
20210921205543 22 209 6.4 11.3 0.00 0.00 0.00 54 1016.2
20210921205047 22 205 0.0 9.7 0.00 0.00 0.00 53 1016.2
20210921204551 22 205 4.8 9.7 0.00 0.00 0.00 53 1016.2
20210921204041 22 203 1.6 9.7 0.00 0.00 0.00 52 1016.2
20210921203549 22 203 4.8 9.7 0.00 0.00 0.00 52 1016.3
20210921203052 22 203 0.0 8.0 0.00 0.00 0.00 51 1016.3
20210921202554 22 203 0.0 8.0 0.00 0.00 0.00 51 1016.2
20210921202047 22 203 0.0 6.4 0.00 0.00 0.00 50 1016.3
20210921201553 23 203 0.0 14.5 0.00 0.00 0.00 49 1016.2
20210921201035 23 203 3.2 16.1 0.00 0.00 0.00 49 1016.2
20210921200602 23 205 6.4 16.1 0.00 0.00 0.00 48 1015.9
20210921200037 23 205 1.6 8.0 0.00 0.00 0.00 48 1016.0